Tracking 28790 objects as of 18-Apr-2024
HD Live streaming from Space Station
objects crossing your sky now

SL-6 R/B(2)

Track SL-6 R/B(2) now!


NORAD ID: 14191
Int'l Code: 1983-070D
Perigee: 4,620.4 km
Apogee: 35,263.4 km
Inclination: 71.1 °
Period: 708.0 minutes
Semi major axis: 26312 km
RCS: 5.2965 m2 (large)
Launch date: July 8, 1983
Source: Commonwealth of Independent States (former USSR) (CIS)
Launch site: PLESETSK MISSILE AND SPACE COMPLEX (PKMTR)

Note: This is a ROCKET BODY
Your satellite tracking list
Your tracking list is empty




NASA's NSSDC Master Catalog

Two Line Element Set (TLE):
1 14191U 83070D   24108.07667972 -.00000495  00000-0  00000+0 0  9991
2 14191  71.0905 295.7709 5822823 278.7219  22.8969  2.03399850223490
Source of the keplerian elements: AFSPC